Regional Weather Roundup
Issued by NWS Sterling, VA

Home | Current Version | Previous Version | Graphics & Text | Print | Product List | Glossary On
Versions: 1 2 3 4 5 6 7 8 9 10 11 12 13 14 15 16 17 18 19 20 21 22 23 24 25 26 27 28 29 30 31 32 33 34 35 36 37 38 39 40 41 42 43 44 45 46 47 48 49 50
000
ASUS41 KLWX 280411
RWRLWX

REGIONAL WEATHER ROUNDUP
NATIONAL WEATHER SERVICE BALTIMORE MD/WASHINGTON DC
1200 AM EDT THU JUL 28 2016

Note: "FAIR" indicates few or no clouds below 12,000 feet
with no significant weather and/or obstructions to visibility.
 TC=TEMPERATURE CELSIUS

 * =Non NWS site. Station does not report precipitation (e.g. rain,
    snow, etc.), thunder, or fog.

DCZ001-MDZ009-015-VAZ040>042-051-053>054-280500-
WASHINGTON METRO

CITY           SKY/WX    TMP DP  RH WIND       PRES   REMARKS
WASHINGTON NAT FAIR      84  74  71 S8        29.91S HX  91
DULLES         FAIR      79  71  76 W3        29.92S
ANDREWS AFB    CLEAR     77  73  85 S3        29.91S
FT BELVOIR     FAIR      77  73  87 CALM      29.91S
QUANTICO       FAIR      83  74  74 SW5       29.91F
COLLEGE PARK*  FAIR      79  72  78 CALM      29.90F
LEESBURG*      FAIR      79  73  83 CALM      29.93S
MANASSAS*      FAIR      77  75  94 CALM      29.91S
GAITHERSBURG*  CLOUDY    75  70  83 CALM      29.96S

$$

MDZ006>007-011-014-280500-
BALTIMORE METRO

CITY           SKY/WX    TMP DP  RH WIND       PRES   REMARKS
BWI AIRPORT    PTCLDY    80  71  74 CALM      29.90F
MD SCIENCE CTR   N/A     86  70  58 MISG      29.90F HX  90
MARTIN STATE   PTCLDY    79  79 100 CALM      29.91F
ANNAPOLIS      PTCLDY    83  73  72 CALM      29.89F
FORT MEADE*    CLEAR     73  72  94 CALM      29.93S

$$

MDZ012-015-019>023-280500-
MARYLAND EASTERN SHORE

CITY           SKY/WX    TMP DP  RH WIND       PRES   REMARKS
OCEAN CITY     PTCLDY    80  78  94 CALM      29.91S
SALISBURY      CLOUDY    80  78  94 SE3       29.91S FOG
EASTON*        CLOUDY    81  78  92 CALM      29.95S

$$

MDZ017>025-280500-
SOUTHERN MARYLAND

CITY           SKY/WX    TMP DP  RH WIND       PRES   REMARKS
PATUXENT RIVER PTCLDY    80  73  79 SW5       29.90F
ST INIGOES     CLOUDY    82  74  76 S6        29.91R
LEONARDTOWN*     N/A    N/A N/A N/A MISG        N/A

$$

MDZ003>005-280500-
NORTH CENTRAL MARYLAND

CITY           SKY/WX    TMP DP  RH WIND       PRES   REMARKS
FREDERICK*     CLEAR     77  72  83 SE3       29.94S
HAGERSTOWN APT CLEAR     79  70  74 S5        29.93F

$$

MDZ501>502-280500-
WESTERN MARYLAND

CITY           SKY/WX    TMP DP  RH WIND       PRES   REMARKS
OAKLAND*       CLOUDY    70  64  83 CALM      30.08S
CUMBERLAND*    CLOUDY    79  70  73 N5        29.98S

$$

VAZ025>031-280500-
SHENANDOAH VALLEY

CITY           SKY/WX    TMP DP  RH WIND       PRES   REMARKS
WINCHESTER*    FAIR      72  70  94 SE3       29.94F
FRONT ROYAL*   FAIR      72  70  94 S5        29.93F
LURAY*         FAIR     N/A N/A N/A CALM      29.96F
NEW MARKET*    FAIR     N/A N/A N/A CALM      29.95S
STAUNTON*      FOG       69  69  99 CALM      30.00S VSB 1
WAYNESBORO*    MOCLDY    70  69  96 CALM      30.00S

$$

WVZ021-048>050-054>055-280500-
EASTERN WEST VIRGINIA PANHANDLE

CITY           SKY/WX    TMP DP  RH WIND       PRES   REMARKS
MARTINSBURG    FAIR      74  69  85 S3        29.92F
PETERSBURG*    FAIR      75  73  91 CALM      29.95F

$$

VAZ036>039-050-280500-
CENTRAL FOOTHILLS

CITY           SKY/WX    TMP DP  RH WIND       PRES   REMARKS
CHARLOTTESVILL FAIR      75  73  93 SW5       29.94S
CULPEPER*      FAIR      74  74  99 CALM      29.93S
ORANGE*          N/A     73  73 100 CALM      29.95S
GORDONSVILLE*  FAIR      73  73 100 CALM      29.93S
WARRENTON*     FAIR      76  70  81 S3        29.92S

$$

VAZ055>057-280500-
NORTH AND CENTRAL PIEDMONT

CITY           SKY/WX    TMP DP  RH WIND       PRES   REMARKS
FREDERICKSBRG* FAIR      79  75  90 CALM      29.91S
STAFFORD*      FAIR      75  73  93 CALM      29.96S

$$

NCZ024-NYZ072-PAZ021-071-VAZ022-071-280500-
OTHER REGIONAL OBSERVATIONS

CITY           SKY/WX    TMP DP  RH WIND       PRES   REMARKS
NEW YORK CITY  CLEAR     80  68  66 CALM      29.93S
PHILADELPHIA   PTCLDY    80  68  66 S3        29.91S
PITTSBURGH     PTCLDY    76  60  57 CALM      29.97R
ROANOKE        FAIR      75  74  96 CALM      30.00F
RICHMOND       FAIR      79  74  84 NW5       29.93R
RALEIGH        MOCLDY    77  72  84 CALM      29.96F

$$

ANZ530>537-280500-
MARINE OBSERVATIONS

STATION/POSITION TIME  TEMP    WIND        PRES
                       AIR SEA DIR/SP/G
                 (UTC) (F)     (DEG/KT/KT) (MB)
THOMAS PT LIGHT  0400   85 85  210/  8/  9 1013.9F
BALT KEY BRIDGE  0342   85     170/  3/  4 1012.3F
COVE POINT       0342   83     250/  6/  8 1013.3S
LEWISETTA        0342   80 88  250/  7/  9 1012.6R
SOLOMONS ISLAND  0342   83 86  240/  4/  5   N/A
PINEY POINT      0336          260/  6/  8   N/A

$$




USA.gov is the U.S. government's official web portal to all federal, state and local government web resources and services.